Weather Roundup
Issued by NWS Chicago, IL

Home | Current Version | Previous Version | Text Only | Print | Product List | Glossary Off
Versions: 1 2 3 4 5 6 7 8 9 10 11 12 13 14 15 16 17 18 19 20 21 22 23 24 25 26 27 28 29 30 31 32 33 34 35 36 37 38 39 40 41 42 43 44 45 46 47 48 49 50

000
NZUS59 KLOT 160810
HRRLOT

CHICAGO AREA WEATHER ROUNDUP
NATIONAL WEATHER SERVICE CHICAGO/ROMEOVILLE IL
300 AM CDT WED APR 16 2014

NOTE: "FAIR" INDICATES FEW OR NO CLOUDS BELOW 12,000 FEET WITH NO
SIGNIFICANT WEATHER AND/OR OBSTRUCTIONS TO VISIBILITY.

* THESE STATIONS ARE NOT UNDER NWS QUALITY CONTROL. THEY ALSO MAY NOT
  REPORT WEATHER SUCH AS PRECIPITATION OR FOG.

ILZ005-006-012>014-019>023-160900-
NORTHEAST ILLINOIS

CITY           SKY/WX    TMP DP  RH WIND       PRES   REMARKS
OHARE          CLEAR     28  18  66 S6        30.23R WCI  22
MIDWAY         CLEAR     32  21  64 S5        30.24R WCI  27
AURORA         CLEAR     28  21  75 SE6       30.23R WCI  22
LANSING*       CLEAR     28  20  71 S3        30.26R
JOLIET*        CLEAR     30  21  70 SE3       30.25R
WAUKEGAN       CLEAR     23  21  92 CALM      30.22S
DUPAGE AIRPORT CLEAR     27  20  75 S5        30.22R WCI  22
WHEELING       CLEAR     28  22  78 CALM      30.25R
KANKAKEE*      CLEAR     29  23  78 SE6       30.26S WCI  23
MORRIS*        CLEAR     31  22  69 SE7       30.23R WCI  24
LEWIS AIRPORT* CLEAR     28  22  78 S8        30.24R WCI  20
NORTHERLY IS     N/A     33  21  61 S5          N/A  WCI  29
$$

WIZ051-052-058>065-066-070>072-160900-
SOUTHEAST WISCONSIN

CITY           SKY/WX    TMP DP  RH WIND       PRES   REMARKS
MILWAUKEE      PTCLDY    26  21  81 S3        30.23S
KENOSHA*       CLEAR     25  19  78 S5        30.22S WCI  19
RACINE*        CLEAR     26  23  88 S3        30.24S
BURLINGTON     MOCLDY    20  20  98 CALM      30.21S
WAUKESHA       CLEAR     23  21  93 CALM      30.21S
WEST BEND      CLEAR     23  19  86 CALM      30.22R
$$

INZ001>003-010>013-019-020-160900-
NORTHWEST INDIANA

CITY           SKY/WX    TMP DP  RH WIND       PRES   REMARKS
GARY*          CLEAR     31  21  66 SE6       30.26R WCI  25
MICHIGAN CITY* NOT AVBL
RENSSELAER*    NOT AVBL
VALPARAISO     CLEAR     23  16  74 E3        30.27R
$$

LMZ740>746-160900-
SOUTHERN LAKE MICHIGAN

STATION/POSITION TIME  SKY/WX   TEMP WIND        PRES    VSBY
                                AIR  DIR/SP/G
                 (UTC)          (F)  (DEG/KT/KT) (MB)    (MI)
HARRISON CRIB    0800            35  190/ 14/ 16   N/A
BURNHAM HARBOR   0800            34  200/  7       N/A
CALUMET HARBOR   0800            31  170/  5/  6 1024.9R
BURNS HARBOR     NOT AVBL
MICHIGAN CITY    0800            30  140/  9/ 11   N/A
$$

ABBREVIATIONS USED IN REMARKS
   TC - TEMPERATURE IN CELSIUS
  WCI - WIND CHILL INDEX
   HX - HEAT INDEX
  VSB - VISIBILITY
$$


USA.gov is the U.S. government's official web portal to all federal, state and local government web resources and services.